sat.trackr.live / text

‹ back to catalog

STARLINK-37884

NORAD 69655 · 2026-143G

PAYLOAD ACTIVE UNKNOWN

§ Identity

Operator
Country
US
Launch date
2026-06-21
Launch site
AFWTR
Launch vehicle
Mass (kg)
RCS (m²)

Purposes: comms

External: N2YO · Heavens-Above · Gunter

§ Orbital elements

Epoch: 2026-09-19T08:41:56.442048Z

Period
93.91 min
Inclination
97.2844°
Eccentricity
0.0000968
Mean motion
15.33446673 rev/d
Perigee alt
464.9 km
Apogee alt
466.2 km
Semi-major
6,843.7 km
B*
5.7307e-4
RAAN
305.4974°
Arg perigee
82.3951°
Mean anomaly
277.7401°
Rev number
1,503

§ Raw data

STARLINK-378841 69655U 26143G   26262.36245882  .00018472  00000+0  57307-3 0  99992 69655  97.2844 305.4974 0000968  82.3951 277.7401 15.33446673 15039

JSON: /api/v1/satellites/69655 · /tle

For live sub-satellite position, see the globe view (requires WebGL).

§ Visibility from observer

Set your observer location to see the next 7 days of passes ≥ 10°. The values pass through the URL so the page stays shareable.

No JS? Fill the form by hand. The geolocation button needs JavaScript.